#timestamp,LO_Frequency,Hit 
1499454015.7,286047005.0,N
1499454035.6,286047005.1,N
1499454055.4,286047005.7,N
1499454075.2,286047003.3,N
1499454095.1,286047004.5,N
1499454096.0,286047004.5,N
1499454115.8,286047005.1,N
1499454135.6,286047005.4,N
1499454155.5,286047004.8,N
1499454175.3,286047004.7,N
1499454195.2,286047007.5,N
1499454215.9,286047004.5,N
1499454235.7,286047006.4,N
1499454255.6,286047007.1,N
1499454275.4,286047007.2,N
1499454295.2,286047007.4,N
1499454315.1,286047006.5,N
1499454316.0,286047006.5,N
1499454335.8,286047006.9,N
1499454355.7,286047006.9,N
1499454375.5,286047004.5,N
1499454395.3,286047006.6,N
1499454415.2,286047006.9,N
1499454435.0,286047006.3,N
1499454435.9,286047006.3,N
1499454455.7,286047008.4,N
1499454475.6,286047008.5,N
1499454495.4,286047007.8,N
1499454515.3,286047010.7,N
1499454535.1,286047009.8,N
1499454555.8,286047010.7,N
1499454575.7,286047008.9,N
1499454595.5,286047008.5,N
1499454615.4,286047008.7,N
1499454635.2,286047008.8,N
1499454655.0,286047009.1,N
1499454655.9,286047009.1,N
1499454675.8,286047009.0,N
1499454695.6,286047009.0,N
1499454715.5,286047006.2,N
1499454735.3,286047006.5,N
1499454755.1,286047008.4,N
1499454775.9,286047008.5,N
1499454795.7,286047008.8,N
1499454815.5,286047008.9,N
1499454835.4,286047008.5,N
1499454855.2,286047010.8,N
1499454875.0,286047010.3,N
1499454876.0,286047010.3,N
1499454895.8,286047007.9,N
1499454915.6,286047007.9,N
1499454935.5,286047007.8,N
1499454955.3,286047008.0,N
1499454975.1,286047007.8,N
1499454995.9,286047008.1,N
1499455015.7,286047010.7,N
1499455035.6,286047009.1,N
1499455055.4,286047009.1,N
1499455075.2,286047009.0,N
1499455095.1,286047008.3,N
1499455096.0,286047008.3,N
1499455115.8,286047008.4,N
1499455135.6,286047008.0,N
1499455155.5,286047010.0,N
1499455175.3,286047007.8,N
1499455195.2,286047010.8,N
1499455215.9,286047008.1,N
1499455235.7,286047010.6,N
1499455255.6,286047008.0,N
1499455275.4,286047010.4,N
1499455295.2,286047007.8,N
1499455315.1,286047010.5,N
1499455316.0,286047010.5,N
1499455335.8,286047010.0,N
1499455355.7,286047010.1,N
1499455375.5,286047010.3,N
1499455395.3,286047009.5,N
1499455415.2,286047010.1,N
1499455435.0,286047009.5,N
1499455435.9,286047009.5,N
1499455455.8,286047011.8,N
1499455475.6,286047012.0,N
1499455495.4,286047009.6,N
1499455515.3,286047010.1,N
1499455535.1,286047012.4,N
1499455555.8,286047010.0,N
1499455575.7,286047009.4,N
1499455595.5,286047012.1,N
1499455615.4,286047011.3,N
1499455635.2,286047012.3,N
1499455655.0,286047013.6,N
1499455655.9,286047013.6,N
1499455675.8,286047014.0,N
1499455695.6,286047013.6,N
1499455715.5,286047012.2,N
1499455735.3,286047009.8,N
1499455755.1,286047009.9,N
1499455775.9,286047009.6,N
1499455795.7,286047010.3,N
1499455815.5,286047010.2,N
1499455835.4,286047010.1,N
1499455855.2,286047009.5,N
1499455905.1,286047012.0,Y
1499455915.0,286047005.5,N
1499455915.9,286047005.5,N
1499455935.7,286046999.3,N
1499455955.6,286046999.0,N
1499455975.4,286046996.9,N
1499455995.3,286046997.1,N
1499456015.1,286046999.6,N
1499456016.0,286046999.6,N
1499456035.8,286046997.8,N
1499456055.7,286046997.1,N
1499456075.5,286046996.6,N
1499456095.3,286046999.3,N
1499456115.2,286046999.2,N
1499456135.0,286046998.6,N
1499456135.9,286046998.6,N
1499456155.8,286046998.1,N
1499456175.6,286047001.0,N
1499456195.4,286046998.4,N
1499456215.3,286046998.9,N
1499456235.1,286046998.7,N
1499456255.9,286046998.5,N
1499456275.7,286046998.1,N
1499456295.5,286047002.5,N
1499456315.4,286047002.6,N
1499456335.2,286047002.8,N
1499456355.0,286047000.0,N
1499456355.9,286047000.0,N
1499456375.8,286047000.0,N
1499456395.6,286047000.5,N
1499456445.5,286046999.7,Y
1499456455.4,286047002.0,N
1499456475.2,286047000.1,N
1499456495.1,286046998.3,N
1499456496.0,286046998.3,N
1499456515.8,286046999.2,N
1499456535.7,286046998.6,N
1499456555.5,286046999.0,N
1499456575.3,286046998.7,N
1499456595.2,286046998.4,N
1499456615.0,286046999.1,N
1499456615.9,286046999.1,N
1499456635.8,286046999.6,N
1499456655.6,286046996.8,N
1499456675.4,286046997.2,N
1499456695.3,286046997.7,N
1499456715.1,286046997.0,N
1499456735.8,286046997.1,N
1499456755.7,286046997.4,N
1499456775.5,286046997.6,N
1499456795.4,286046995.0,N
1499456815.2,286046995.6,N
1499456835.0,286046995.7,N
1499456835.9,286046995.7,N
1499456855.8,286046995.9,N
1499456875.6,286046996.4,N
1499456895.4,286046995.9,N
1499456915.3,286046994.0,N
1499456935.1,286046993.8,N
1499456955.9,286046993.8,N
1499456975.7,286046993.7,N
1499456995.5,286046993.3,N
1499457015.4,286046996.3,N
1499457035.2,286046994.5,N
1499457055.1,286046994.2,N
1499457056.0,286046994.2,N
1499457075.8,286046994.0,N
1499457095.6,286046994.4,N
1499457115.5,286046994.6,N
1499457135.3,286046994.4,N
1499457155.2,286046994.4,N
1499457175.9,286046991.8,N
1499457195.7,286046991.8,N
1499457215.6,286046992.4,N
1499457235.4,286046991.8,N
1499457255.2,286046991.8,N
1499457275.1,286046992.1,N
1499457276.0,286046992.1,N
1499457295.8,286046992.3,N
1499457315.7,286046993.1,N
1499457335.5,286046990.2,N
1499457355.3,286046990.5,N
1499457405.2,286046991.6,Y
1499457415.1,286046996.1,N
1499457435.9,286046998.5,N
1499457455.7,286047001.0,N
1499457475.5,286047000.3,N
1499457495.4,286046999.7,N
1499457515.2,286047000.3,N
1499457535.1,286047002.6,N
1499457536.0,286047002.6,N
1499457555.8,286047002.2,N
1499457575.6,286047002.6,N
1499457595.5,286047000.5,N
